Regional Weather Roundup
Issued by NWS Sioux Falls, SD

Home | Current Version | Previous Version | Text Only | Print | Product List | Glossary On
Versions: 1 2 3 4 5 6 7 8 9 10 11 12 13 14 15 16 17 18 19 20 21 22 23 24 25 26 27 28 29 30 31 32 33 34 35 36 37 38 39 40 41 42 43 44 45 46 47 48 49 50
000
ASUS43 KFSD 051702
RWRFSD

WEATHER ROUNDUP FOR SE SOUTH DAKOTA/SW MINNESOTA/NW IOWA
NATIONAL WEATHER SERVICE SIOUX FALLS SD
1200 PM CDT TUE MAY 05 2015

NOTE: "FAIR" INDICATES FEW OR NO CLOUDS BELOW 12,000 FEET WITH NO
SIGNIFICANT WEATHER AND OR OBSTRUCTIONS TO VISIBILITY.


SDZ038>040-050-052>070-051800-
SOUTHEAST SOUTH DAKOTA

CITY           SKY/WX    TMP DP  RH WIND       PRES   REMARKS
BROOKINGS      MOSUNNY   70  39  32 E22G28    30.08F
CHAMBERLAIN    NOT AVBL
HURON          SUNNY     73  37  27 SE14G22   30.04F
MADISON        PTSUNNY   68  41  37 SE15G21   30.08S
MITCHELL       PTSUNNY   69  40  34 SE14      30.06F
SIOUX FALLS    CLOUDY    67  51  56 SE15      30.07F
WINNER         CLOUDY    64  49  57 SE16      30.03F
YANKTON        CLOUDY    61  52  72 SE9       30.07S
$$

MNZ071-072-080-081-089-090-097-098-051800-
SOUTHWEST MINNESOTA

CITY           SKY/WX    TMP DP  RH WIND       PRES   REMARKS
FAIRMONT       CLOUDY    57  50  77 E14       30.14S
JACKSON        CLOUDY    59  54  82 E15       30.14S HAZE
LUVERNE        CLOUDY    70  54  56 SE12G20   30.09F
MARSHALL       CLOUDY    66  43  42 SE17G23   30.11R
MONTEVIDEO     SUNNY     73  39  29 S20G26    30.11F
REDWOOD FALLS  PTSUNNY   70  51  51 E15G28    30.12F
TRACY          CLOUDY    65  49  55 SE14      30.12S
WORTHINGTON    CLOUDY    61  52  72 E15       30.12R
$$

IAZ001>003-012>014-020>022-031-032-NEZ013-014-SDZ071-051800-
NORTHWEST IOWA

CITY           SKY/WX    TMP DP  RH WIND       PRES   REMARKS
DENISON        PTSUNNY   66  66 100 S8        30.08S
ESTHERVILLE    CLOUDY    59  57  93 E17       30.12S FOG
SIOUX CITY     CLOUDY    61  57  87 SE7       30.09S
SPENCER        CLOUDY    59  57  93 SE14      30.12R FOG
$$

ABBREVIATIONS USED IN REMARKS
   TC - TEMPERATURE IN CELSIUS
  WCI - WIND CHILL INDEX
   HX - HEAT INDEX
  VSB - VISIBILITY



USA.gov is the U.S. government's official web portal to all federal, state and local government web resources and services.